Home > Products > State Listing > Colorado Data
Latest:
 RWRCO |
  [top]

000
ASUS45 KBOU 301107
RWRCO

WEATHER ROUNDUP FOR COLORADO
NATIONAL WEATHER SERVICE DENVER/BOULDER CO
500 AM MDT MON MAY 30 2016

NOTE: "FAIR" INDICATES FEW OR NO CLOUDS BELOW 12000 FEET WITH NO
SIGNIFICANT WEATHER AND/OR OBSTRUCTIONS TO VISIBILITY.

COZ001>005-013-030-031-301200-
...NORTHWEST COLORADO...

CITY           SKY/WX    TMP DP  RH WIND       PRES   REMARKS
CRAIG          FAIR      39  35  86 CALM      30.15R
HAYDEN         CLOUDY    45  34  65 E9        30.15R
MEEKER         FAIR      39  34  82 NE5       30.14S
MOUNT WERNER   NOT AVBL
STEAMBOAT SPGS MOCLDY    37  33  87 CALM      30.17S
WALDEN         NOT AVBL
$$

COZ006>008-011-301200-
...WEST CENTRAL VALLEYS...

CITY           SKY/WX    TMP DP  RH WIND       PRES   REMARKS
GRAND JUNCTION FAIR      47  36  65 SE5       30.05R
MONTROSE       FAIR      46  31  55 SE9       30.13R
EAGLE          FAIR      37  34  87 CALM      30.22R
RIFLE          FAIR      41  36  82 E5        30.12R
DELTA          FAIR      53  33  46 CALM      30.10R
NUCLA          FAIR      46  30  53 E8        30.13S
$$

COZ017>023-064>068-301200-
...SOUTHWEST COLORADO...

CITY           SKY/WX    TMP DP  RH WIND       PRES   REMARKS
DURANGO        FAIR      37  27  67 N5        30.16R
CORTEZ         FAIR      40  30  67 CALM      30.11R
PAGOSA SPRINGS FAIR      42  26  54 CALM      30.21S
TELLURIDE      FAIR      42  25  50 SE8       30.29S
WOLF CREEK PAS FAIR      37  18  44 S7        30.46S
$$

COZ009-010-012-014-032>034-037-058>063-301200-
...CENTRAL COLORADO...

CITY           SKY/WX    TMP DP  RH WIND       PRES   REMARKS
ASPEN          FAIR      37  29  72 VRB3      30.20S
BUENA VISTA    FAIR      39  28  64 W8        30.26S
COPPER MTN     NOT AVBL
BERTHOUD PASS  FAIR      32  23  69 NW9G18    30.43S WCI  24
COTTONWOOD PAS FAIR      48  21  34 W6        30.33F
GUNNISON       FAIR      36  28  75 CALM      30.28S
KREMMLING      FAIR      34  32  93 CALM      30.24S
LEADVILLE      FAIR      29  23  78 CALM      30.32S
MONARCH PASS   FAIR      37  19  48 MISG      30.53F
SALIDA         FAIR      40  30  66 W5        30.32S
SUNLIGHT       FAIR      41  27  56 CALM      30.38S
WILKERSON PASS FAIR      37  27  65 SW6       30.41F
$$

COZ069>075-301200-
...SAN LUIS VALLEY/SANGRE DE CRISTO MOUNTAINS...

CITY           SKY/WX    TMP DP  RH WIND       PRES   REMARKS
ALAMOSA        FAIR      39  38  96 SE3       30.21S
LA VETA PASS   FAIR      45  28  53 CALM      30.34R
SAGUACHE       FAIR      43  30  61 NW12      30.23R
$$

COZ035-036-038>040-301200-
...NORTHERN COLORADO FRONT RANGE...

CITY           SKY/WX    TMP DP  RH WIND       PRES   REMARKS
DENVER INTL AP FAIR      50  40  68 SW10      30.06F
DMNS CITY PARK   N/A     51  40  66 SE9       30.06F
AURORA         PTCLDY    48  40  73 S7        30.08F
FRONT RANGE AP NOT AVBL
ERIE MUNI ARPT FAIR      43  40  91 CALM      30.06F
BOULDER MUN AP FAIR      46  37  71 CALM      30.05F
CENTENNIAL     FAIR      46  39  76 S7        30.09F
BROOMFIELD     FAIR      48  37  66 SW6       30.07F
FORT COLLINS   FAIR      50  43  76 CALM      30.06F
LONGMONT       FAIR      48  40  74 W3        30.07F
$$

COZ041-046-047-076>085-087-088-301200-
...PIKES PEAK/PALMER DIVIDE AND SOUTHERN FOOTHILLS...

CITY           SKY/WX    TMP DP  RH WIND       PRES   REMARKS
COLO. SPRINGS  FAIR      48  40  73 SW5       30.14R
A. F. ACADEMY  FAIR      39  37  93 N8        30.13F
SCHRIEVER AFB  NOT AVBL
ELLICOTT       NOT AVBL
FALCON         FAIR      44  37  77 W7        30.16S
FORT CARSON    FAIR      47  40  76 W5        30.11S
LIMON          FAIR      40  39  97 N3        30.07F
MONUMENT HILL  FAIR      41  36  81 SW8       30.17S
TRINIDAD       FAIR      54  44  69 W20       30.11S
$$

COZ042>045-048>051-090-091-301200-
...NORTHEAST COLORADO...

CITY           SKY/WX    TMP DP  RH WIND       PRES   REMARKS
GREELEY ARPT   FAIR      46  43  87 CALM      30.05F
AKRON          FAIR      49  46  90 SE7       30.05F
BURLINGTON     FAIR      50  46  86 S7        30.04F
WRAY           FAIR      52  48  87 SW7       30.02F
STERLING       FAIR      50  48  93 SW8       30.02S
HOLYOKE        FAIR      59  52  77 SW12      30.01F
FORT MORGAN    FAIR      49  44  84 SE3       30.05R
$$

COZ086-089-092>099-301200-
...SOUTHEAST COLORADO...

CITY           SKY/WX    TMP DP  RH WIND       PRES   REMARKS
PUEBLO         FAIR      51  45  79 NW6       30.07S
LA JUNTA       FAIR      50  46  86 E6        30.04F
LAMAR          FAIR      45  44  97 SE3       30.03S
SPRINGFIELD      N/A     46  45  96 SW6       30.08R
$$





000
ASUS45 KBOU 300607
RWRCO

WEATHER ROUNDUP FOR COLORADO
NATIONAL WEATHER SERVICE DENVER/BOULDER CO
1200 AM MDT MON MAY 30 2016

NOTE: "FAIR" INDICATES FEW OR NO CLOUDS BELOW 12000 FEET WITH NO
SIGNIFICANT WEATHER AND/OR OBSTRUCTIONS TO VISIBILITY.

COZ001>005-013-030-031-300700-
...NORTHWEST COLORADO...

CITY           SKY/WX    TMP DP  RH WIND       PRES   REMARKS
CRAIG          FAIR      44  39  82 CALM      30.16F
HAYDEN         FAIR      48  36  61 E8        30.17F
MEEKER         FAIR      46  39  76 NE7       30.17F
MOUNT WERNER   NOT AVBL
STEAMBOAT SPGS FAIR      43  36  74 N5        30.20S
WALDEN         NOT AVBL
$$

COZ006>008-011-300700-
...WEST CENTRAL VALLEYS...

CITY           SKY/WX    TMP DP  RH WIND       PRES   REMARKS
GRAND JUNCTION FAIR      61  37  41 W6        30.06S
MONTROSE       FAIR      52  35  52 S7        30.13R
EAGLE          FAIR      48  36  61 CALM      30.23R
RIFLE          FAIR      49  38  65 SE5       30.13S
DELTA          FAIR      58  35  41 N3        30.09S
NUCLA          FAIR      55  30  38 E5        30.13R
$$

COZ017>023-064>068-300700-
...SOUTHWEST COLORADO...

CITY           SKY/WX    TMP DP  RH WIND       PRES   REMARKS
DURANGO        FAIR      51  27  39 N3        30.13S
CORTEZ         FAIR      48  30  49 N3        30.09S
PAGOSA SPRINGS FAIR      48  26  42 CALM      30.21F
TELLURIDE      FAIR      45  28  51 SE7       30.32S
WOLF CREEK PAS FAIR      36  27  69 NE7       30.49F
$$

COZ009-010-012-014-032>034-037-058>063-300700-
...CENTRAL COLORADO...

CITY           SKY/WX    TMP DP  RH WIND       PRES   REMARKS
ASPEN          FAIR      42  31  64 SW7       30.25S
BUENA VISTA    FAIR      42  27  56 W6        30.28S
COPPER MTN     NOT AVBL
BERTHOUD PASS  FAIR      32  23  69 W6        30.49R WCI  26
COTTONWOOD PAS MOCLDY    50  23  34 W8        30.37S
GUNNISON       FAIR      45  30  57 NE6       30.29S
KREMMLING      FAIR      41  34  75 CALM      30.26S
LEADVILLE      FAIR      35  25  66 E6        30.36F WCI  30
MONARCH PASS   MOCLDY    39  23  52 E12       30.58F
SALIDA         FAIR      49  32  52 W7        30.32F
SUNLIGHT       FAIR      43  32  65 CALM      30.42F
WILKERSON PASS FAIR      41  27  56 SW10      30.47S
$$

COZ069>075-300700-
...SAN LUIS VALLEY/SANGRE DE CRISTO MOUNTAINS...

CITY           SKY/WX    TMP DP  RH WIND       PRES   REMARKS
ALAMOSA        FAIR      47  37  68 CALM      30.22S
LA VETA PASS   FAIR      45  30  57 SE7       30.38F
SAGUACHE       FAIR      45  34  65 NW14      30.26S
$$

COZ035-036-038>040-300700-
...NORTHERN COLORADO FRONT RANGE...

CITY           SKY/WX    TMP DP  RH WIND       PRES   REMARKS
DENVER INTL AP FAIR      54  43  66 S10       30.11F
DMNS CITY PARK   N/A     55  44  65 SE8       30.11F
AURORA         PTCLDY    51  43  74 S10       30.13F
FRONT RANGE AP NOT AVBL
ERIE MUNI ARPT FAIR      50  46  84 CALM      30.11S
BOULDER MUN AP FAIR      55  41  58 SW5       30.11F
CENTENNIAL     FAIR      51  41  68 S6        30.14F
BROOMFIELD     FAIR      54  41  62 NW6       30.14S
FORT COLLINS   FAIR      55  43  62 S6        30.10S
LONGMONT       FAIR      53  46  79 W3        30.12F
$$

COZ041-046-047-076>085-087-088-300700-
...PIKES PEAK/PALMER DIVIDE AND SOUTHERN FOOTHILLS...

CITY           SKY/WX    TMP DP  RH WIND       PRES   REMARKS
COLO. SPRINGS  FAIR      54  40  59 NE10      30.19F
A. F. ACADEMY  FAIR      45  39  81 CALM      30.22R
SCHRIEVER AFB  NOT AVBL
ELLICOTT       FAIR       1 N/A N/A E9        30.17F WCI -14
FALCON         FAIR      47  40  76 CALM      30.24S
FORT CARSON    FAIR      52  44  72 NW10      30.17S
LIMON          FAIR      52  46  80 SE9       30.16S
MONUMENT HILL  FAIR      43  37  81 S10       30.24R
TRINIDAD       FAIR      57  43  59 W18G24    30.16R
$$

COZ042>045-048>051-090-091-300700-
...NORTHEAST COLORADO...

CITY           SKY/WX    TMP DP  RH WIND       PRES   REMARKS
GREELEY ARPT   FAIR      54  45  71 W3        30.09S
AKRON          FAIR      54  50  86 SE12      30.11R
BURLINGTON     FAIR      56  50  80 SW10      30.12F
WRAY           FAIR      61  50  67 E14G21    30.11F
STERLING       FAIR      61  52  72 SE20G30   30.04S
HOLYOKE        FAIR      61  52  72 S20G29    30.08R
FORT MORGAN    FAIR      55  47  76 NE8       30.09S
$$

COZ086-089-092>099-300700-
...SOUTHEAST COLORADO...

CITY           SKY/WX    TMP DP  RH WIND       PRES   REMARKS
PUEBLO         FAIR      57  49  74 E7        30.10S
LA JUNTA       FAIR      59  46  62 SE8       30.10S
LAMAR          FAIR      57  48  72 SE9       30.09F
SPRINGFIELD      N/A     53  49  86 SW15G22   30.10F
$$





000
ASUS45 KBOU 300307
RWRCO

WEATHER ROUNDUP FOR COLORADO
NATIONAL WEATHER SERVICE DENVER/BOULDER CO
900 PM MDT SUN MAY 29 2016

NOTE: "FAIR" INDICATES FEW OR NO CLOUDS BELOW 12000 FEET WITH NO
SIGNIFICANT WEATHER AND/OR OBSTRUCTIONS TO VISIBILITY.

COZ001>005-013-030-031-300400-
...NORTHWEST COLORADO...

CITY           SKY/WX    TMP DP  RH WIND       PRES   REMARKS
CRAIG          MOCLDY    52  42  69 CALM      30.18S
HAYDEN         FAIR      54  36  50 CALM      30.20R
MEEKER         FAIR      57  41  55 SE8       30.19F
MOUNT WERNER   NOT AVBL
STEAMBOAT SPGS FAIR      51  36  55 CALM      30.21R
WALDEN         NOT AVBL
$$

COZ006>008-011-300400-
...WEST CENTRAL VALLEYS...

CITY           SKY/WX    TMP DP  RH WIND       PRES   REMARKS
GRAND JUNCTION FAIR      68  34  28 NE10      30.03R
MONTROSE       FAIR      64  36  35 S8        30.11R
EAGLE          FAIR      57  36  44 CALM      30.18R
RIFLE          FAIR      63  37  38 NW5       30.11R
DELTA          FAIR      65  33  29 N8        30.06S
NUCLA          FAIR      63  30  29 E8        30.11F
$$

COZ017>023-064>068-300400-
...SOUTHWEST COLORADO...

CITY           SKY/WX    TMP DP  RH WIND       PRES   REMARKS
DURANGO        FAIR      65  18  16 W5        30.11R
CORTEZ         FAIR      63  29  27 CALM      30.06R
PAGOSA SPRINGS FAIR      56  23  28 CALM      30.19S
TELLURIDE      FAIR      53  28  38 CALM      30.31R
WOLF CREEK PAS FAIR      41  18  38 SW9       30.48S
$$

COZ009-010-012-014-032>034-037-058>063-300400-
...CENTRAL COLORADO...

CITY           SKY/WX    TMP DP  RH WIND       PRES   REMARKS
ASPEN          FAIR      49  35  58 S8        30.22R
BUENA VISTA    FAIR      50  28  43 W3        30.25R
COPPER MTN     NOT AVBL
BERTHOUD PASS  FAIR      32  23  69 N12G21    30.48S WCI  23
COTTONWOOD PAS FAIR      50  28  43 CALM      30.35S
GUNNISON       FAIR      52  34  50 NW9       30.24F
KREMMLING      CLOUDY    52  36  54 S13       30.24R
LEADVILLE      FAIR      42  26  53 NE7       30.34R
MONARCH PASS   FAIR      37  28  70 W14       30.56R
SALIDA         FAIR      57  29  34 W7        30.29R
SUNLIGHT       FAIR      43  32  65 CALM      30.42S
WILKERSON PASS FAIR      43  25  49 NE7       30.47R
$$

COZ069>075-300400-
...SAN LUIS VALLEY/SANGRE DE CRISTO MOUNTAINS...

CITY           SKY/WX    TMP DP  RH WIND       PRES   REMARKS
ALAMOSA        FAIR      56  33  42 N8        30.20R
LA VETA PASS   MOCLDY    48  28  46 N7        30.39R
SAGUACHE       FAIR      54  32  43 NW7       30.25R
$$

COZ035-036-038>040-300400-
...NORTHERN COLORADO FRONT RANGE...

CITY           SKY/WX    TMP DP  RH WIND       PRES   REMARKS
DENVER INTL AP MOCLDY    60  41  49 N10       30.11R
DMNS CITY PARK   N/A     62  42  47 E12       30.11R
AURORA         MOCLDY    56  45  66 SE7       30.14R
FRONT RANGE AP NOT AVBL
ERIE MUNI ARPT FAIR      56  50  80 W3        30.11R
BOULDER MUN AP FAIR      59  45  58 NE3       30.11R
CENTENNIAL     MOCLDY    55  42  61 S6        30.14R
BROOMFIELD     MOCLDY    59  48  67 E6        30.13R
FORT COLLINS   FAIR      57  45  62 W5        30.11S
LONGMONT       FAIR      60  48  64 N3        30.12S
$$

COZ041-046-047-076>085-087-088-300400-
...PIKES PEAK/PALMER DIVIDE AND SOUTHERN FOOTHILLS...

CITY           SKY/WX    TMP DP  RH WIND       PRES   REMARKS
COLO. SPRINGS  FAIR      61  41  47 NW15      30.17R
A. F. ACADEMY  FAIR      55  41  58 N9        30.19R
SCHRIEVER AFB  NOT AVBL
ELLICOTT       FAIR     N/A N/A N/A NE5       30.14R
FALCON         FAIR      55  38  51 N9        30.22R
FORT CARSON    FAIR      55  45  68 NW10      30.14R
LIMON          FAIR      55  47  74 N10       30.10R
MONUMENT HILL  FAIR      50  41  71 N3        30.23R
TRINIDAD       FAIR      60  44  55 SE18G30   30.11R
$$

COZ042>045-048>051-090-091-300400-
...NORTHEAST COLORADO...

CITY           SKY/WX    TMP DP  RH WIND       PRES   REMARKS
GREELEY ARPT   FAIR      64  43  45 CALM      30.10R
AKRON          FAIR      62  47  57 NW12      30.06R
BURLINGTON     FAIR      59  50  72 S29G38    30.06R
WRAY           CLOUDY    61  54  77 E17G24    30.07R
STERLING       CLOUDY    64  50  59 CALM      30.03R
HOLYOKE        NOT AVBL
FORT MORGAN    FAIR      61  49  64 N10       30.06F
$$

COZ086-089-092>099-300400-
...SOUTHEAST COLORADO...

CITY           SKY/WX    TMP DP  RH WIND       PRES   REMARKS
PUEBLO         FAIR      64  45  49 SE9G20    30.07R
LA JUNTA       FAIR      66  46  48 S12       30.05R
LAMAR          FAIR      64  47  53 S14       30.05R
SPRINGFIELD      N/A     55  50  83 S14       30.11S
$$





000
ASUS45 KBOU 300207
RWRCO

WEATHER ROUNDUP FOR COLORADO
NATIONAL WEATHER SERVICE DENVER/BOULDER CO
800 PM MDT SUN MAY 29 2016

NOTE: "FAIR" INDICATES FEW OR NO CLOUDS BELOW 12000 FEET WITH NO
SIGNIFICANT WEATHER AND/OR OBSTRUCTIONS TO VISIBILITY.

COZ001>005-013-030-031-300300-
...NORTHWEST COLORADO...

CITY           SKY/WX    TMP DP  RH WIND       PRES   REMARKS
CRAIG          FAIR      56  40  55 CALM      30.18S
HAYDEN         FAIR      57  37  47 N8        30.19R
MEEKER         MOCLDY    61  37  41 SW7       30.20R
MOUNT WERNER   NOT AVBL
STEAMBOAT SPGS FAIR      56  36  45 W6        30.18S
WALDEN         NOT AVBL
$$

COZ006>008-011-300300-
...WEST CENTRAL VALLEYS...

CITY           SKY/WX    TMP DP  RH WIND       PRES   REMARKS
GRAND JUNCTION FAIR      72  29  20 SE13      30.01F
MONTROSE       FAIR      70  32  24 SE8       30.10F
EAGLE          FAIR      64  34  32 CALM      30.17S
RIFLE          FAIR      63  40  42 S6        30.09F
DELTA          FAIR      74  29  18 NE5       30.06F
NUCLA          FAIR      70  30  23 E7        30.12R
$$

COZ017>023-064>068-300300-
...SOUTHWEST COLORADO...

CITY           SKY/WX    TMP DP  RH WIND       PRES   REMARKS
DURANGO        FAIR      71  20  14 W9        30.10R
CORTEZ         FAIR      72  28  19 S6        30.05S
PAGOSA SPRINGS FAIR      59  31  33 CALM      30.19R
TELLURIDE      FAIR      54  29  38 SW5       30.33R
WOLF CREEK PAS FAIR      41  18  38 SW9       30.49R
$$

COZ009-010-012-014-032>034-037-058>063-300300-
...CENTRAL COLORADO...

CITY           SKY/WX    TMP DP  RH WIND       PRES   REMARKS
ASPEN          FAIR      57  33  40 N3        30.21S
BUENA VISTA    FAIR      58  26  29 SW5       30.24R
COPPER MTN     NOT AVBL
BERTHOUD PASS  FAIR      32  23  69 NW17      30.47S WCI  21
COTTONWOOD PAS FAIR      54  25  32 W5        30.35R
GUNNISON       FAIR      61  28  29 CALM      30.25F
KREMMLING      FAIR      55  34  44 S10       30.22S
LEADVILLE      FAIR      49  25  39 N7        30.33S
MONARCH PASS   FAIR      41  27  56 W22       30.55F
SALIDA         FAIR      63  28  26 W9        30.28R
SUNLIGHT       FAIR      45  32  61 CALM      30.42S
WILKERSON PASS FAIR      43  27  52 N6        30.45R
$$

COZ069>075-300300-
...SAN LUIS VALLEY/SANGRE DE CRISTO MOUNTAINS...

CITY           SKY/WX    TMP DP  RH WIND       PRES   REMARKS
ALAMOSA        FAIR      62  31  31 N8        30.18S
LA VETA PASS   MOCLDY    50  28  43 NE5       30.37R
SAGUACHE       FAIR      54  32  43 NW9       30.24S
$$

COZ035-036-038>040-300300-
...NORTHERN COLORADO FRONT RANGE...

CITY           SKY/WX    TMP DP  RH WIND       PRES   REMARKS
DENVER INTL AP MOCLDY    61  41  47 N8        30.09F
DMNS CITY PARK   N/A     64  42  45 E6G14     30.11R
AURORA         MOCLDY    58  45  60 E6        30.12F
FRONT RANGE AP MOCLDY    59  45  58 NE3       30.12S
ERIE MUNI ARPT FAIR      61  47  60 CALM      30.10R
BOULDER MUN AP FAIR      61  45  55 NE3       30.10R
CENTENNIAL     MOCLDY    62  39  42 NE3       30.13S
BROOMFIELD     MOCLDY    59  48  67 SW7       30.12R
FORT COLLINS   FAIR      39  39 100 CALM      30.12R
LONGMONT       FAIR      64  45  50 CALM      30.12R
$$

COZ041-046-047-076>085-087-088-300300-
...PIKES PEAK/PALMER DIVIDE AND SOUTHERN FOOTHILLS...

CITY           SKY/WX    TMP DP  RH WIND       PRES   REMARKS
COLO. SPRINGS  MOCLDY    62  44  51 N8        30.14R
A. F. ACADEMY  FAIR      59  45  58 N6        30.16R
SCHRIEVER AFB  NOT AVBL
ELLICOTT       FAIR     N/A N/A N/A NE5       30.12R
FALCON         FAIR      58  43  57 W3        30.18R
FORT CARSON    CLEAR     64  45  49 N6        30.11R
LIMON          FAIR      59  52  77 N3        30.08S
MONUMENT HILL  FAIR      55  41  58 N5        30.21R
TRINIDAD       FAIR      65  44  46 SE15G25   30.09R
$$

COZ042>045-048>051-090-091-300300-
...NORTHEAST COLORADO...

CITY           SKY/WX    TMP DP  RH WIND       PRES   REMARKS
GREELEY ARPT   MOCLDY    64  41  42 SW6       30.08S
AKRON          MOCLDY    68  45  43 W14G23    30.03S
BURLINGTON     FAIR      60  51  72 SE28G35   30.05R
WRAY           NOT AVBL
STERLING       FAIR      66  50  55 N14G24    29.98F
HOLYOKE        NOT AVBL
FORT MORGAN    LGT RAIN  61  45  55 NW17G24   30.06S
$$

COZ086-089-092>099-300300-
...SOUTHEAST COLORADO...

CITY           SKY/WX    TMP DP  RH WIND       PRES   REMARKS
PUEBLO         FAIR      70  44  39 NE9       30.04R
LA JUNTA       FAIR      69  47  45 S22       30.03S
LAMAR          FAIR      68  46  45 S15G36    30.02R
SPRINGFIELD      N/A     57  51  80 S15       30.11R
$$





000
ASUS45 KBOU 300107
RWRCO

WEATHER ROUNDUP FOR COLORADO
NATIONAL WEATHER SERVICE DENVER/BOULDER CO
700 PM MDT SUN MAY 29 2016

NOTE: "FAIR" INDICATES FEW OR NO CLOUDS BELOW 12000 FEET WITH NO
SIGNIFICANT WEATHER AND/OR OBSTRUCTIONS TO VISIBILITY.

COZ001>005-013-030-031-300200-
...NORTHWEST COLORADO...

CITY           SKY/WX    TMP DP  RH WIND       PRES   REMARKS
CRAIG          CLOUDY    60  43  53 N14       30.18R
HAYDEN         FAIR      61  37  41 NE7       30.16F
MEEKER         FAIR      66  34  30 CALM      30.15S
MOUNT WERNER   NOT AVBL
STEAMBOAT SPGS FAIR      61  37  40 NW8       30.18F
WALDEN         NOT AVBL
$$

COZ006>008-011-300200-
...WEST CENTRAL VALLEYS...

CITY           SKY/WX    TMP DP  RH WIND       PRES   REMARKS
GRAND JUNCTION FAIR      74  29  19 S10       30.02F
MONTROSE       FAIR      70  33  25 E5        30.11F
EAGLE          FAIR      66  32  28 W5        30.17S
RIFLE          FAIR      68  36  30 W5        30.10F
DELTA          FAIR      75  31  19 E6        30.07F
NUCLA          FAIR      72  27  18 E9        30.12F
$$

COZ017>023-064>068-300200-
...SOUTHWEST COLORADO...

CITY           SKY/WX    TMP DP  RH WIND       PRES   REMARKS
DURANGO        FAIR      75  15  10 W13G20    30.09S
CORTEZ         FAIR      76  21  12 SW7       30.05F
PAGOSA SPRINGS FAIR      68  17  14 CALM      30.19S
TELLURIDE      FAIR      56  27  32 NW3       30.32S
WOLF CREEK PAS FAIR      45  18  33 SW13G18   30.47F
$$

COZ009-010-012-014-032>034-037-058>063-300200-
...CENTRAL COLORADO...

CITY           SKY/WX    TMP DP  RH WIND       PRES   REMARKS
ASPEN          FAIR      62  30  29 CALM      30.21F
BUENA VISTA    FAIR      60  27  28 SE3       30.23S
COPPER MTN     NOT AVBL
BERTHOUD PASS  CLOUDY    34  27  75 W16G23    30.47F WCI  23
COTTONWOOD PAS FAIR      57  21  24 SW10      30.34S
GUNNISON       FAIR      63  28  27 CALM      30.26S
KREMMLING      FAIR      61  32  33 S8        30.24R
LEADVILLE      FAIR      52  24  33 NW8G17    30.33F
MONARCH PASS   FAIR      41  27  56 MISG      30.56S
SALIDA         NOT AVBL
SUNLIGHT       FAIR      48  32  53 W3        30.42F
WILKERSON PASS FAIR      46  23  39 SW7       30.43S
$$

COZ069>075-300200-
...SAN LUIS VALLEY/SANGRE DE CRISTO MOUNTAINS...

CITY           SKY/WX    TMP DP  RH WIND       PRES   REMARKS
ALAMOSA        FAIR      64  30  27 NW10      30.18F
LA VETA PASS   FAIR      54  21  28 CALM      30.35S
SAGUACHE       FAIR      63  32  31 NW16      30.23S
$$

COZ035-036-038>040-300200-
...NORTHERN COLORADO FRONT RANGE...

CITY           SKY/WX    TMP DP  RH WIND       PRES   REMARKS
DENVER INTL AP PTSUNNY   61  44  53 N10       30.11S
DMNS CITY PARK   N/A     67  35  31 E9        30.08F
AURORA         PTSUNNY   63  43  47 N10       30.13R
FRONT RANGE AP PTSUNNY   59  45  58 N20G26    30.12R
ERIE MUNI ARPT FAIR      61  44  53 NW9       30.09S
BOULDER MUN AP FAIR      64  41  42 W3        30.09R
CENTENNIAL     PTSUNNY   65  41  41 N14       30.13R
BROOMFIELD     PTSUNNY   63  43  48 S7        30.11F
FORT COLLINS   FAIR      43  43 100 S10       30.09R
LONGMONT       FAIR      66  45  45 SE7       30.11R
$$

COZ041-046-047-076>085-087-088-300200-
...PIKES PEAK/PALMER DIVIDE AND SOUTHERN FOOTHILLS...

CITY           SKY/WX    TMP DP  RH WIND       PRES   REMARKS
COLO. SPRINGS  PTSUNNY   64  39  39 N12       30.12F
A. F. ACADEMY  FAIR      61  39  44 NW7       30.13S
SCHRIEVER AFB  NOT AVBL
ELLICOTT       FAIR     N/A N/A N/A N7        30.11R
FALCON         FAIR      60  38  44 NW3       30.17F
FORT CARSON    SUNNY     68  43  40 N9        30.08S
LIMON          FAIR      64  53  67 CALM      30.08S
MONUMENT HILL  FAIR      59  37  44 SW7       30.18F
TRINIDAD       FAIR      75  31  19 S12       30.07R
$$

COZ042>045-048>051-090-091-300200-
...NORTHEAST COLORADO...

CITY           SKY/WX    TMP DP  RH WIND       PRES   REMARKS
GREELEY ARPT   FAIR      64  45  48 S12       30.07R
AKRON          FAIR      72  51  47 SW6       30.03R
BURLINGTON     FAIR      64  50  60 SE22      30.04R
WRAY           FAIR      70  52  52 SE24G31   30.00R
STERLING       FAIR      73  52  46 CALM      29.98S
HOLYOKE        NOT AVBL
FORT MORGAN    DRIZZLE   68  42  39 W18G24    30.06R
$$

COZ086-089-092>099-300200-
...SOUTHEAST COLORADO...

CITY           SKY/WX    TMP DP  RH WIND       PRES   REMARKS
PUEBLO         FAIR      77  41  27 CALM      30.01R
LA JUNTA       FAIR      73  45  36 S17       30.03R
LAMAR          FAIR      71  43  36 S29G46    29.97R
SPRINGFIELD      N/A     62  52  69 SE17      30.10F
$$





    US Dept of Commerce
    National Oceanic and Atmospheric Administration
    National Weather Service
    1325 East West Highway
    Silver Spring, MD 20910
    Page Author: NWS Internet Services Team
Disclaimer
Information Quality
Credits
Glossary
Privacy Policy
Freedom of Information Act (FOIA)
About Us
Career Opportunities